Regional Weather Roundup
Issued by NWS

Home | Current Version | Previous Version | Graphics & Text | Print | Product List | Glossary On
Versions: 1 2 3 4 5 6 7 8 9 10 11 12 13 14 15 16 17 18 19 20 21 22 23 24 25 26 27
000
ASUS45 KBOU 280907
RWRCO

WEATHER ROUNDUP FOR COLORADO
NATIONAL WEATHER SERVICE DENVER/BOULDER CO
300 AM MDT FRI APR 28 2017

NOTE: "FAIR" INDICATES FEW OR NO CLOUDS BELOW 12000 FEET WITH NO
SIGNIFICANT WEATHER AND/OR OBSTRUCTIONS TO VISIBILITY.

COZ001>005-013-030-031-281000-
...NORTHWEST COLORADO...

CITY           SKY/WX    TMP DP  RH WIND       PRES   REMARKS
CRAIG          CLOUDY    33  23  66 W7        29.75F WCI  27
HAYDEN         CLOUDY    28  23  80 CALM      29.74F
MEEKER         LGT SNOW  30  28  92 E8        29.75F FOG     WCI  22
MOUNT WERNER   NOT AVBL
STEAMBOAT SPGS CLOUDY    30  23  76 SW7       29.72F WCI  23
WALDEN           N/A     23  19  86 SW10      29.69F WCI  12
$$

COZ006>008-011-281000-
...WEST CENTRAL VALLEYS...

CITY           SKY/WX    TMP DP  RH WIND       PRES   REMARKS
GRAND JUNCTION FAIR      34  17  50 NW8       29.76S WCI  27
MONTROSE       FAIR      34  18  52 W7        29.77S WCI  28
EAGLE          FAIR      27  23  85 E9        29.76F WCI  18
RIFLE          MOCLDY    31  29  92 W3        29.75F
DELTA          FAIR      38  24  57 CALM      29.75S
NUCLA          MOCLDY    32  10  40 E6        29.80S WCI  26
$$

COZ017>023-064>068-281000-
...SOUTHWEST COLORADO...

CITY           SKY/WX    TMP DP  RH WIND       PRES   REMARKS
DURANGO        CLOUDY    39  15  37 W15       29.74F
CORTEZ         CLOUDY    42  19  39 N9        29.76F
PAGOSA SPRINGS FAIR      30  16  56 CALM      29.75S
TELLURIDE      CLOUDY    28  10  46 CALM      29.79R
WOLF CREEK PAS CLOUDY    16   0  48 S9        29.81F WCI   4
$$

COZ009-010-012-014-032>034-037-058>063-281000-
...CENTRAL COLORADO...

CITY           SKY/WX    TMP DP  RH WIND       PRES   REMARKS
ASPEN          CLOUDY    24  20  84 SW7       29.73F WCI  16
BUENA VISTA    FAIR      26  16  65 NW7       29.70S WCI  19
COPPER MTN     FAIR      14   9  79 MISG      29.69F
BERTHOUD PASS  CLOUDY     9  -4  56 NW28G36   29.61R WCI -13
COTTONWOOD PAS FAIR      25  14  63 W6        29.69S WCI  18
GUNNISON       FAIR      24  18  77 NW5       29.74F WCI  18
KREMMLING      CLOUDY    34  25  69 CALM      29.73F
LEADVILLE      MOCLDY    16   9  74 CALM      29.70F
MONARCH PASS   CLOUDY    12  10  92 W17       29.80F WCI  -5
SALIDA         FAIR      28  22  78 CALM      29.78S
SUNLIGHT       CLOUDY   N/A N/A N/A SW3       29.76F
WILKERSON PASS FAIR      16   9  73 W9G16     29.68F WCI   4
$$

COZ069>075-281000-
...SAN LUIS VALLEY/SANGRE DE CRISTO MOUNTAINS...

CITY           SKY/WX    TMP DP  RH WIND       PRES   REMARKS
ALAMOSA        MOCLDY    26  21  81 SW3       29.72F
LA VETA PASS   FAIR      23   9  54 SW7G16    29.82S WCI  15
SAGUACHE       FAIR      23  12  63 CALM      29.73R
$$

COZ035-036-038>040-281000-
...NORTHERN COLORADO FRONT RANGE...

CITY           SKY/WX    TMP DP  RH WIND       PRES   REMARKS
DENVER INTL AP FAIR      34  21  59 SW9       29.61S WCI  27
DMNS CITY PARK   N/A     42  13  30 S2        29.62S
AURORA         PTCLDY    38  15  39 CALM      29.62F
FRONT RANGE AP FAIR      36  23  60 SW6       29.62S
ERIE MUNI ARPT FAIR      31  28  88 CALM      29.61S
BOULDER MUN AP FAIR      37  18  44 W13       29.60S
CENTENNIAL     FAIR      36  18  48 W8        29.62S
BROOMFIELD     FAIR      37  18  44 W15       29.60F
FORT COLLINS   FAIR      33  31  92 NE3       29.61F
LONGMONT       FAIR      37  34  89 CALM      29.62S
$$

COZ041-046-047-076>085-087-088-281000-
...PIKES PEAK/PALMER DIVIDE AND SOUTHERN FOOTHILLS...

CITY           SKY/WX    TMP DP  RH WIND       PRES   REMARKS
COLO. SPRINGS  FAIR      39  18  42 VRB5      29.64F
A. F. ACADEMY  FAIR      39  15  37 NW6G21    29.64S
SCHRIEVER AFB  FAIR      37  19  48 NW9       29.65R
ELLICOTT       FAIR     N/A N/A N/A CALM      29.64R
FALCON         FAIR      32  19  59 NW12      29.65S WCI  23
FORT CARSON    FAIR      35  26  68 CALM      29.63S
LIMON          FAIR      28  28 100 N6        29.62S WCI  22
MONUMENT HILL  FAIR      28  19  69 SW8       29.65F WCI  20
TRINIDAD       FAIR      34  28  79 W12       29.66F WCI  25
$$

COZ042>045-048>051-090-091-281000-
...NORTHEAST COLORADO...

CITY           SKY/WX    TMP DP  RH WIND       PRES   REMARKS
GREELEY ARPT   FAIR      32  31  96 E3        29.62S
AKRON          CLOUDY    38  35  89 W5        29.59F
BURLINGTON     NOT AVBL
WRAY           NOT AVBL
STERLING       FAIR      37  36  93 CALM      29.60S
HOLYOKE        CLOUDY    41  37  87 N6        29.61S
FORT MORGAN    FOG       34  33  96 CALM      29.62S VSB 1/2
$$

COZ086-089-092>099-281000-
...SOUTHEAST COLORADO...

CITY           SKY/WX    TMP DP  RH WIND       PRES   REMARKS
PUEBLO         FAIR      38  33  82 E5        29.63F
LA JUNTA       FAIR      40  37  89 S6        29.65F
LAMAR          FAIR      35  33  92 S9        29.64R WCI  28
SPRINGFIELD      N/A     39  37  92 NW10      29.65R
$$




USA.gov is the U.S. government's official web portal to all federal, state and local government web resources and services.